Location: Newark
(36.1358°N, 115.1208°W)
Time: 04:15:46
(UTC+00:00)

ISS - Pass Details

Date: 20 January 2021
Orbit: 417 x 422 km, 51.6° (Epoch: 07 March)

Event Time Altitude Azimuth Distance (km) Brightness Sun altitude
Rises 02:08:06 0° 242° (WSW) 2,359 1.7 -14.9°
Reaches altitude 10° 02:10:15 10° 249° (WSW) 1,499 0.4 -15.4°
Maximum altitude 02:13:29 43° 323° (NW) 605 -2.8 -16.0°
Enters shadow 02:15:06 24° 21° (NNE) 915 -2.4 -16.3°
